{"data":{"norad_id":67343,"intl_designator":"2026-003K","name":"STARLINK-36458","alt_names":[],"object_type":"PAYLOAD","status":"ACTIVE","operator":null,"country":"US","launch_date":"2026-01-09","launch_site_code":"AFETR","launch_vehicle":null,"mission":null,"orbit_class":"UNKNOWN","rcs_meters":null,"size_class":null,"mass_kg":null,"dimensions":null,"purposes":["comms"],"wikipedia_slug":null,"has_3d_model":false,"image_url":null,"decayed_at":null,"tle_current":{"epoch":"2026-05-25T01:10:14.116800Z","epoch_age_seconds":74806,"freshness":"FRESH","line1":"1 67343U 26003K   26145.04877450  .00021221  00000+0  77811-3 0  9991","line2":"2 67343  42.9969 155.6891 0001231 166.1939 193.8946 15.27595136 20502","mean_motion":15.27595136,"eccentricity":0.0001231,"inclination_deg":42.9969,"raan_deg":155.6891,"arg_perigee_deg":166.1939,"mean_anomaly_deg":193.8946,"bstar":0.00077811,"rev_number":2050,"period_min":94.265814682458,"perigee_km":482.15916735548,"apogee_km":483.84838021399,"semimajor_km":6861.1407737847,"source":"CELESTRAK","updated_at":"2026-05-25T13:38:21.523867Z"}}}